Regional Weather Roundup
Issued by NWS Charleston, WV

Home | Current Version | Previous Version | Graphics & Text | Print | Product List | Glossary On
Versions: 1 2 3 4 5 6 7 8 9 10 11 12 13 14 15 16 17 18 19 20 21 22 23 24 25 26 27 28 29 30 31 32 33 34 35 36 37 38 39 40 41 42 43 44 45 46 47 48 49 50
622
ASUS41 KRLX 122310
RWRRLX
West Virginia Regional Weather Roundup
National Weather Service Charleston WV
600 PM EST FRI FEB 12 2016

Note: "fair" indicates few or no clouds below 12,000 feet with no
significant weather and/or obstructions to visibility.

WVZ003-130000-
Northern Panhandle of West Virginia

CITY           SKY/WX    TMP DP  RH WIND       PRES   REMARKS
WHEELING       LGT SNOW  20  11  68 SW13G18   29.96S WCI   7
$$

WVZ009-130000-
Northwest West Virginia

CITY           SKY/WX    TMP DP  RH WIND       PRES   REMARKS
PARKERSBURG    CLOUDY    23  16  74 VRB6      30.07R
$$

WVZ006-130000-
Western West Virginia

CITY           SKY/WX    TMP DP  RH WIND       PRES   REMARKS
HUNTINGTON     CLOUDY    31  15  52 W8        30.07R
$$

WVZ015-130000-
West Central West Virginia

CITY           SKY/WX    TMP DP  RH WIND       PRES   REMARKS
CHARLESTON     CLOUDY    29  13  51 W7        30.04R
$$

WVZ022-031-130000-
North Central West Virginia

CITY           SKY/WX    TMP DP  RH WIND       PRES   REMARKS
CLARKSBURG     LGT SNOW  21  18  88 W3        29.99R FOG
MORGANTOWN     LGT SNOW  20  12  71 W5        29.99R
$$

WVZ025-035-042-045-130000-
Southern West Virginia

CITY           SKY/WX    TMP DP  RH WIND       PRES   REMARKS
BECKLEY        CLOUDY    24  17  74 W12       29.94R
LOGAN          MIX PCPN  28  19  69 SW9       30.02R
BLUEFIELD      CLOUDY    24  19  81 W14G31    29.93R
LEWISBURG      FLURRIES  29  22  76 NW7       29.92R
$$

WVZ047-130000-
Northern Mountains of West Virginia

CITY           SKY/WX    TMP DP  RH WIND       PRES   REMARKS
ELKINS         LGT SNOW  21  15  78 W8        29.94R
$$

WVZ052-130000-
Eastern Panhandle of West Virginia

CITY           SKY/WX    TMP DP  RH WIND       PRES   REMARKS
MARTINSBURG    LGT SNOW  25  17  72 N8        29.98R
PETERSBURG     FLURRIES  26  21  79 CALM      29.95S
$$




USA.gov is the U.S. government's official web portal to all federal, state and local government web resources and services.